Simultaneous Nadir Overpasses (SNOs) Predictions

Prediction of SNOs between GOES-15 and LANDSAT-8 Satellite Orbit:

Table of predicted SNOs for the next 14.0 days since TLE Epoch: 8/19/2023
Index Date Time (GOES-15) GOES-15 Lat,Lon LANDSAT-8 Lat,Lon Distance(km) Time Diff (sec)
1 08/20/2023 00:35:11 -0.17, 140.95 -0.75, 143.82 325.80 80
2 08/20/2023 12:59:18 0.21, 140.50 -0.20, 138.60 215.84 80
3 08/22/2023 12:44:34 0.19, 138.44 0.82, 141.47 344.22 80
4 08/23/2023 01:08:31 -0.22, 137.83 0.13, 136.29 176.65 80
5 08/25/2023 00:53:48 -0.20, 135.78 -0.91, 139.16 383.82 80
6 08/25/2023 13:17:54 0.23, 135.32 -0.03, 133.93 157.51 80
7 08/27/2023 13:03:09 0.21, 133.27 0.97, 136.81 403.30 80
8 08/28/2023 01:27:07 -0.24, 132.65 -0.02, 131.62 117.30 80
9 08/30/2023 01:12:22 -0.22, 130.59 -1.04, 134.50 444.52 80
10 08/30/2023 13:36:28 0.26, 130.13 0.05, 129.29 96.11 80
11 09/01/2023 13:21:43 0.24, 128.05 1.09, 132.16 467.24 80
12 09/02/2023 01:45:41 -0.27, 127.43 -0.15, 126.97 52.66 80
